Retour au catalogue

STARLINK-36892

ActifCommunicationsVLEO
NORAD 67944·PAYLOAD·🇺🇸 United States

Lancé Feb 24, 2026 depuis Vandenberg Space Force Base

Loading…

Prochains Passages (prochaines 24 heures)

TLE

FraisSource: CelesTrak SupGP

Époque: Sep 15, 2026, 03:59 UTC

1 67944C 26037N   26258.16645833 -.00039408  00000+0 -14277-2 0  2583
2 67944  43.0000 200.5055 0001333 273.7271 331.9102 15.27590815    18

Suivez STARLINK-36892 en temps réel avec AllMySat

Download on the App Store